FW7875 Weather Reports


Display with metric or nautical units.
time (UTC)temp
F
wind
direction
speed
MPH
gust
MPH
rain 1hr
in
rain 24hr
in
rain mn
in
humidity
%
barometer
mb
20260903014550 65 148 4.0 10.0 0.00 0.00 0.00 54 1021.5
20260903014022 65 162 5.0 12.0 0.00 0.00 0.00 53 1021.6
20260903013517 66 186 6.0 14.0 0.00 0.00 0.00 53 1021.5
20260903013041 66 153 9.0 15.0 0.00 0.00 0.00 53 1021.5
20260903012518 66 166 10.0 15.0 0.00 0.00 0.00 52 1021.4
20260903012018 67 140 11.0 18.0 0.00 0.00 0.00 51 1021.4
20260903011538 67 147 9.0 19.0 0.00 0.00 0.00 51 1021.6
20260903011024 67 139 13.0 21.0 0.00 0.00 0.00 50 1021.5
20260903010517 67 139 15.0 21.0 0.00 0.00 0.00 50 1021.4
20260903010035 67 142 14.0 20.0 0.00 0.00 0.00 50 1021.4
20260903005518 68 134 10.0 18.0 0.00 0.00 0.00 50 1021.6
20260903005019 67 129 10.0 18.0 0.00 0.00 0.00 51 1021.8
20260903004548 67 149 9.0 18.0 0.00 0.00 0.00 50 1021.8
20260903004020 67 126 11.0 17.0 0.00 0.00 0.00 50 1021.8
20260903003516 66 149 10.0 20.0 0.00 0.00 0.00 50 1021.7
20260903003043 66 153 14.0 28.0 0.00 0.00 0.00 50 1021.8
20260903002524 66 179 17.0 36.0 0.00 0.00 0.00 50 1021.7
20260903002021 66 167 21.0 36.0 0.00 0.00 0.00 51 1021.5
20260903001536 66 165 20.0 35.0 0.00 0.00 0.00 52 1021.6
20260903001017 67 161 20.0 40.0 0.00 0.00 0.00 52 1021.6
20260903000522 68 205 24.0 40.0 0.00 0.00 0.00 49 1021.5
20260903000040 70 236 22.0 31.0 0.00 0.00 0.00 46 1021.4
20260902235552 71 135 21.0 30.0 0.00 0.00 0.00 44 1021.2
20260902235019 72 167 18.0 26.0 0.00 0.00 0.00 43 1021.2
20260902234545 73 176 14.0 26.0 0.00 0.00 0.00 43 1021.1
20260902234021 73 155 18.0 26.0 0.00 0.00 0.00 42 1021.0
20260902233522 73 154 18.0 25.0 0.00 0.00 0.00 44 1021.1
20260902233035 74 188 14.0 23.0 0.00 0.00 0.00 44 1020.8
20260902232524 75 156 13.0 23.0 0.00 0.00 0.00 42 1020.9
20260902232018 76 152 16.0 23.0 0.00 0.00 0.00 42 1021.1
20260902231538 75 154 15.0 21.0 0.00 0.00 0.00 42 1020.9
20260902231020 74 155 12.0 21.0 0.00 0.00 0.00 44 1021.0
20260902230522 73 156 15.0 22.0 0.00 0.00 0.00 44 1021.0
20260902230040 73 148 14.0 22.0 0.00 0.00 0.00 43 1021.0
20260902225518 74 169 12.0 20.0 0.00 0.00 0.00 42 1021.1
20260902225018 74 188 14.0 20.0 0.00 0.00 0.00 41 1021.3
20260902224539 75 160 15.0 21.0 0.00 0.00 0.00 40 1021.3
20260902224020 77 169 13.0 21.0 0.00 0.00 0.00 36 1021.2
20260902223523 77 196 11.0 19.0 0.00 0.00 0.00 35 1021.3
20260902223044 77 206 12.0 26.0 0.00 0.00 0.00 35 1021.3
20260902222522 76 189 18.0 26.0 0.00 0.00 0.00 35 1021.4
20260902222025 76 155 13.0 20.0 0.00 0.00 0.00 37 1021.4
20260902221536 76 152 15.0 20.0 0.00 0.00 0.00 37 1021.5
20260902221020 76 182 14.0 21.0 0.00 0.00 0.00 36 1021.6
20260902220518 76 168 12.0 21.0 0.00 0.00 0.00 37 1021.9
20260902220038 76 214 10.0 17.0 0.00 0.00 0.00 37 1022.2
20260902215520 75 157 9.0 16.0 0.00 0.00 0.00 39 1022.0
20260902215019 74 156 8.0 19.0 0.00 0.00 0.00 40 1022.3
20260902214541 73 122 12.0 25.0 0.00 0.00 0.00 41 1022.6
20260902214021 72 160 16.0 30.0 0.00 0.00 0.00 41 1022.7
20260902213518 72 166 20.0 35.0 0.00 0.00 0.00 43 1022.7
20260902213040 72 161 22.0 35.0 0.00 0.00 0.00 41 1022.7
20260902212518 73 157 25.0 34.0 0.00 0.00 0.00 41 1022.7
20260902212020 74 170 26.0 34.0 0.00 0.00 0.00 40 1022.5
20260902211536 75 167 20.0 29.0 0.00 0.00 0.00 38 1022.5
20260902211020 76 243 14.0 22.0 0.00 0.00 0.00 36 1022.3
20260902210520 76 239 13.0 20.0 0.00 0.00 0.00 37 1022.3
20260902210044 76 234 15.0 22.0 0.00 0.00 0.00 35 1022.2
20260902205519 78 231 15.0 22.0 0.00 0.00 0.00 35 1022.2
20260902205018 77 245 11.0 20.0 0.00 0.00 0.00 39 1022.2
20260902204538 76 255 14.0 20.0 0.00 0.00 0.00 38 1022.3
20260902204019 77 290 11.0 22.0 0.00 0.00 0.00 39 1022.2
20260902203519 77 255 11.0 22.0 0.00 0.00 0.00 38 1022.3
20260902203048 77 240 16.0 21.0 0.00 0.00 0.00 38 1022.3
20260902202520 76 258 8.0 21.0 0.00 0.00 0.00 39 1022.2
20260902202018 76 268 12.0 21.0 0.00 0.00 0.00 38 1022.4
20260902201543 76 250 13.0 19.0 0.00 0.00 0.00 39 1022.6
20260902201020 75 269 10.0 19.0 0.00 0.00 0.00 40 1022.4
20260902200519 76 226 12.0 22.0 0.00 0.00 0.00 38 1022.6
20260902200051 76 235 15.0 22.0 0.00 0.00 0.00 38 1022.7
20260902195520 75 274 14.0 22.0 0.00 0.00 0.00 39 1022.7
20260902195019 75 264 15.0 22.0 0.00 0.00 0.00 39 1022.7
20260902194538 74 288 17.0 23.0 0.00 0.00 0.00 39 1022.8
20260902194017 74 250 14.0 23.0 0.00 0.00 0.00 38 1022.8
20260902193516 74 275 14.0 23.0 0.00 0.00 0.00 38 1022.9
20260902193038 74 232 14.0 21.0 0.00 0.00 0.00 38 1022.9
20260902192520 74 209 12.0 21.0 0.00 0.00 0.00 36 1023.0
20260902192023 74 282 13.0 21.0 0.00 0.00 0.00 37 1023.0
20260902191547 74 205 12.0 19.0 0.00 0.00 0.00 37 1023.2
20260902191021 74 236 11.0 22.0 0.00 0.00 0.00 37 1023.2
20260902190523 74 248 14.0 22.0 0.00 0.00 0.00 36 1023.2
20260902190037 74 251 12.0 24.0 0.00 0.00 0.00 35 1023.2
20260902185518 75 252 17.0 24.0 0.00 0.00 0.00 35 1023.2
20260902185017 75 238 13.0 25.0 0.00 0.00 0.00 35 1023.4
20260902184547 76 251 14.0 25.0 0.00 0.00 0.00 33 1023.4
20260902184018 76 215 9.0 18.0 0.00 0.00 0.00 35 1023.4
20260902183516 73 231 11.0 18.0 0.00 0.00 0.00 38 1023.4
20260902183039 73 243 11.0 16.0 0.00 0.00 0.00 38 1023.4
20260902182519 73 217 10.0 16.0 0.00 0.00 0.00 38 1023.6
20260902182018 73 229 7.0 19.0 0.00 0.00 0.00 38 1023.6
20260902181536 74 207 13.0 19.0 0.00 0.00 0.00 37 1023.8
20260902181022 74 184 8.0 17.0 0.00 0.00 0.00 37 1023.7
20260902180518 75 180 11.0 19.0 0.00 0.00 0.00 36 1023.8
20260902180040 75 181 13.0 19.0 0.00 0.00 0.00 36 1023.8
20260902175520 75 223 7.0 19.0 0.00 0.00 0.00 37 1023.8
20260902175018 76 229 12.0 19.0 0.00 0.00 0.00 36 1024.0
20260902174535 75 228 11.0 18.0 0.00 0.00 0.00 39 1024.0
20260902174018 74 215 12.0 18.0 0.00 0.00 0.00 39 1024.1
20260902173520 74 240 12.0 18.0 0.00 0.00 0.00 40 1024.1
20260902173040 73 221 10.0 17.0 0.00 0.00 0.00 41 1024.2
20260902172517 73 221 10.0 15.0 0.00 0.00 0.00 42 1024.3
20260902172018 72 217 10.0 18.0 0.00 0.00 0.00 42 1024.3
20260902171535 71 221 11.0 18.0 0.00 0.00 0.00 43 1024.3
20260902171018 72 244 10.0 16.0 0.00 0.00 0.00 41 1024.3
20260902170521 71 269 8.0 17.0 0.00 0.00 0.00 43 1024.3
20260902170044 71 259 11.0 17.0 0.00 0.00 0.00 43 1024.5
20260902165518 71 259 11.0 18.0 0.00 0.00 0.00 43 1024.5
20260902165021 71 262 12.0 18.0 0.00 0.00 0.00 42 1024.5
20260902164538 71 266 10.0 17.0 0.00 0.00 0.00 41 1024.3
20260902164018 71 274 11.0 16.0 0.00 0.00 0.00 41 1024.3
20260902163517 71 256 10.0 19.0 0.00 0.00 0.00 41 1024.5
20260902163043 72 239 10.0 19.0 0.00 0.00 0.00 39 1024.3
20260902162516 73 227 10.0 19.0 0.00 0.00 0.00 39 1024.3
20260902162020 71 216 10.0 18.0 0.00 0.00 0.00 39 1024.3
20260902161537 72 238 12.0 20.0 0.00 0.00 0.00 38 1024.3
20260902161023 73 255 13.0 20.0 0.00 0.00 0.00 38 1024.2
20260902160521 73 256 12.0 17.0 0.00 0.00 0.00 37 1024.3
20260902160034 72 229 8.0 16.0 0.00 0.00 0.00 39 1024.2
20260902155520 72 181 9.0 16.0 0.00 0.00 0.00 40 1024.3
20260902155022 71 225 9.0 15.0 0.00 0.00 0.00 42 1024.3
20260902154536 71 245 8.0 17.0 0.00 0.00 0.00 42 1024.2
20260902154017 71 235 12.0 17.0 0.00 0.00 0.00 41 1024.3
20260902153519 71 222 11.0 16.0 0.00 0.00 0.00 40 1024.4
20260902153037 71 220 7.0 16.0 0.00 0.00 0.00 42 1024.3
20260902152519 71 196 5.0 10.0 0.00 0.00 0.00 46 1024.4
20260902152020 71 137 6.0 13.0 0.00 0.00 0.00 46 1024.4
20260902151542 71 160 4.0 13.0 0.00 0.00 0.00 46 1024.4
20260902151018 71 233 7.0 11.0 0.00 0.00 0.00 46 1024.3
20260902150518 70 195 7.0 12.0 0.00 0.00 0.00 47 1024.4
20260902150043 70 150 9.0 12.0 0.00 0.00 0.00 47 1024.4
20260902145521 70 186 6.0 12.0 0.00 0.00 0.00 48 1024.4
20260902145018 70 194 8.0 12.0 0.00 0.00 0.00 49 1024.4
20260902144543 69 221 6.0 13.0 0.00 0.00 0.00 50 1024.4
20260902144019 69 193 8.0 13.0 0.00 0.00 0.00 50 1024.2
20260902143519 68 166 6.0 9.0 0.00 0.00 0.00 51 1024.2
20260902143038 67 161 4.0 7.0 0.00 0.00 0.00 52 1024.3
20260902142519 66 180 2.0 5.0 0.00 0.00 0.00 53 1024.3
20260902142020 65 168 2.0 4.0 0.00 0.00 0.00 54 1024.3
20260902141539 64 0 0.0 4.0 0.00 0.00 0.00 56 1024.3
20260902141020 64 96 1.0 4.0 0.00 0.00 0.00 57 1024.4
20260902140520 62 65 2.0 6.0 0.00 0.00 0.00 59 1024.4
20260902140039 61 78 4.0 6.0 0.00 0.00 0.00 60 1024.3
20260902135519 61 70 4.0 6.0 0.00 0.00 0.00 60 1024.3
20260902135019 61 79 4.0 6.0 0.00 0.00 0.00 60 1024.4
20260902134542 60 73 4.0 6.0 0.00 0.00 0.00 61 1024.3
20260902134020 60 86 5.0 6.0 0.00 0.00 0.00 62 1024.2
20260902133518 59 108 4.0 6.0 0.00 0.00 0.00 62 1024.2
20260902133035 59 102 3.0 6.0 0.00 0.00 0.00 63 1024.3
20260902132517 58 90 4.0 6.0 0.00 0.00 0.00 64 1024.4
20260902132018 57 105 5.0 6.0 0.00 0.00 0.00 64 1024.1
20260902131540 57 91 4.0 6.0 0.00 0.00 0.00 65 1024.2
20260902131020 56 101 4.0 6.0 0.00 0.00 0.00 67 1024.1
20260902130518 56 87 4.0 6.0 0.00 0.00 0.00 67 1024.2
20260902130037 55 96 3.0 6.0 0.00 0.00 0.00 68 1024.2
20260902125522 55 82 5.0 6.0 0.00 0.00 0.00 68 1024.1
20260902125020 55 99 4.0 7.0 0.00 0.00 0.00 68 1024.2
20260902124537 55 87 5.0 7.0 0.00 0.00 0.00 68 1024.1
20260902124017 55 83 5.0 7.0 0.00 0.00 0.00 68 1024.1
20260902123521 55 86 4.0 5.0 0.00 0.00 0.00 68 1024.1
20260902123056 55 84 4.0 5.0 0.00 0.00 0.00 67 1024.0
20260902122518 56 79 4.0 6.0 0.00 0.00 0.00 67 1024.0
20260902122020 55 98 3.0 6.0 0.00 0.00 0.00 68 1023.9
20260902121550 55 86 4.0 6.0 0.00 0.00 0.00 68 1023.8
20260902121017 55 86 4.0 6.0 0.00 0.00 0.00 69 1023.9
20260902120518 55 77 4.0 6.0 0.00 0.00 0.00 69 1023.9
20260902120044 55 103 5.0 7.0 0.00 0.00 0.00 68 1023.9
20260902115519 55 82 5.0 8.0 0.00 0.00 0.00 68 1023.9
20260902115019 55 93 6.0 8.0 0.00 0.00 0.00 68 1023.8
20260902114536 55 90 5.0 8.0 0.00 0.00 0.00 68 1023.7
20260902114017 56 91 6.0 8.0 0.00 0.00 0.00 68 1023.7
20260902113521 55 90 5.0 8.0 0.00 0.00 0.00 69 1023.7
20260902113037 55 84 6.0 8.0 0.00 0.00 0.00 69 1023.6
20260902112518 55 99 5.0 8.0 0.00 0.00 0.00 69 1023.5
20260902112024 55 113 4.0 6.0 0.00 0.00 0.00 70 1023.5
20260902111541 56 98 3.0 4.0 0.00 0.00 0.00 69 1023.5
20260902111018 56 103 2.0 4.0 0.00 0.00 0.00 68 1023.4
20260902110518 56 110 2.0 5.0 0.00 0.00 0.00 69 1023.5
20260902110037 55 0 2.0 6.0 0.00 0.00 0.00 71 1023.5
20260902105519 55 93 4.0 6.0 0.00 0.00 0.00 72 1023.4
20260902105020 56 79 4.0 6.0 0.00 0.00 0.00 70 1023.4
20260902104539 58 89 3.0 5.0 0.00 0.00 0.00 65 1023.5
20260902104017 58 123 4.0 7.0 0.00 0.00 0.00 64 1023.6
20260902103518 59 122 4.0 7.0 0.00 0.00 0.00 64 1023.6
20260902103036 59 139 4.0 8.0 0.00 0.00 0.00 63 1023.6
20260902102519 59 131 5.0 9.0 0.00 0.00 0.00 63 1023.6
20260902102018 59 145 5.0 10.0 0.00 0.00 0.00 62 1023.6
20260902101536 60 120 5.0 10.0 0.00 0.00 0.00 62 1023.6
20260902101025 60 129 5.0 10.0 0.00 0.00 0.00 62 1023.6
20260902100517 60 168 5.0 9.0 0.00 0.00 0.00 61 1023.6
20260902100038 60 130 5.0 8.0 0.00 0.00 0.00 61 1023.6
20260902095518 60 116 5.0 8.0 0.00 0.00 0.00 61 1023.7
20260902095019 59 135 4.0 6.0 0.00 0.00 0.00 63 1023.6
20260902094537 58 107 4.0 7.0 0.00 0.00 0.00 64 1023.6
20260902094018 58 75 5.0 7.0 0.00 0.00 0.00 64 1023.6
20260902093521 58 104 5.0 11.0 0.00 0.00 0.00 65 1023.6
20260902093037 58 98 6.0 12.0 0.00 0.00 0.00 65 1023.6
20260902092520 58 117 7.0 12.0 0.00 0.00 0.00 64 1023.8
20260902092021 58 112 9.0 12.0 0.00 0.00 0.00 63 1023.8
20260902091534 58 109 10.0 12.0 0.00 0.00 0.00 63 1023.8
20260902091018 57 107 7.0 9.0 0.00 0.00 0.00 66 1023.7
20260902090516 57 85 7.0 9.0 0.00 0.00 0.00 66 1023.5
20260902090035 57 90 5.0 9.0 0.00 0.00 0.00 66 1023.6
20260902085517 57 74 6.0 9.0 0.00 0.00 0.00 66 1023.8
20260902085021 57 94 5.0 9.0 0.00 0.00 0.00 66 1024.0
20260902084538 57 148 6.0 10.0 0.00 0.00 0.00 65 1024.1
20260902084020 57 88 7.0 10.0 0.00 0.00 0.00 67 1023.9
20260902083518 57 115 6.0 10.0 0.00 0.00 0.00 69 1023.8
20260902083034 57 115 7.0 10.0 0.00 0.00 0.00 68 1023.9
20260902082520 57 115 6.0 9.0 0.00 0.00 0.00 68 1024.0
20260902082020 57 111 6.0 9.0 0.00 0.00 0.00 69 1024.1
20260902081538 57 126 6.0 9.0 0.00 0.00 0.00 73 1024.0
20260902081018 57 115 6.0 9.0 0.00 0.00 0.00 76 1024.1
20260902080522 57 133 6.0 9.0 0.00 0.00 0.00 76 1024.1
20260902080035 58 131 5.0 8.0 0.00 0.00 0.00 75 1024.3
20260902075520 58 95 6.0 8.0 0.00 0.00 0.00 75 1024.1
20260902075020 58 89 5.0 7.0 0.00 0.00 0.00 75 1024.3
20260902074538 58 110 4.0 6.0 0.00 0.00 0.00 75 1024.3
20260902074022 58 96 4.0 9.0 0.00 0.00 0.00 74 1024.3
20260902073520 58 102 6.0 9.0 0.00 0.00 0.00 74 1024.3
20260902073036 58 119 5.0 6.0 0.00 0.00 0.00 71 1024.4
20260902072518 60 73 4.0 5.0 0.00 0.00 0.00 65 1024.3
20260902072018 62 111 1.0 6.0 0.00 0.00 0.00 65 1024.4
20260902071537 62 266 2.0 6.0 0.00 0.00 0.00 62 1024.4
20260902071020 62 258 2.0 12.0 0.00 0.00 0.00 61 1024.5
20260902070521 62 239 3.0 12.0 0.00 0.00 0.00 61 1024.5
20260902070037 63 219 6.0 12.0 0.00 0.00 0.00 56 1024.8
20260902065524 61 222 5.0 12.0 0.00 0.00 0.00 55 1024.8
20260902065018 60 141 2.0 4.0 0.00 0.00 0.00 54 1024.8
20260902064537 60 123 3.0 5.0 0.00 0.00 0.00 53 1024.4
20260902064019 61 125 3.0 5.0 0.00 0.00 0.00 53 1024.3
20260902063518 60 134 4.0 6.0 0.00 0.00 0.00 53 1024.3
20260902063052 60 120 3.0 6.0 0.00 0.00 0.00 54 1024.3
20260902062519 60 140 3.0 8.0 0.00 0.00 0.00 54 1024.3
20260902062019 60 147 4.0 8.0 0.00 0.00 0.00 54 1024.2
20260902061535 60 119 5.0 7.0 0.00 0.00 0.00 55 1024.1
20260902061023 59 111 5.0 7.0 0.00 0.00 0.00 55 1024.2
20260902060520 59 138 4.0 8.0 0.00 0.00 0.00 56 1024.1
20260902060037 59 129 5.0 8.0 0.00 0.00 0.00 56 1024.1
20260902055517 58 117 5.0 8.0 0.00 0.00 0.00 57 1024.1
20260902055019 58 147 5.0 8.0 0.00 0.00 0.00 57 1023.9
20260902054539 58 109 5.0 8.0 0.00 0.00 0.00 58 1024.0
20260902054023 58 117 5.0 8.0 0.00 0.00 0.00 58 1023.9
20260902053520 58 130 5.0 8.0 0.00 0.00 0.00 58 1023.9
20260902053038 58 121 4.0 6.0 0.00 0.00 0.00 59 1023.8
20260902052517 58 122 4.0 6.0 0.00 0.00 0.00 59 1023.9
20260902052020 57 119 4.0 6.0 0.00 0.00 0.00 61 1023.9
20260902051536 56 120 4.0 6.0 0.00 0.00 0.00 61 1023.8
20260902051021 56 121 3.0 5.0 0.00 0.00 0.00 62 1023.9
20260902050518 55 120 2.0 4.0 0.00 0.00 0.00 64 1023.8
20260902050056 55 0 1.0 2.0 0.00 0.00 0.00 64 1023.8
20260902045525 55 90 0.0 3.0 0.00 0.00 0.00 62 1023.7
20260902045020 56 122 1.0 4.0 0.00 0.00 0.00 61 1023.7
20260902044539 56 115 1.0 6.0 0.00 0.00 0.00 60 1023.8
20260902044019 57 122 3.0 6.0 0.00 0.00 0.00 60 1023.8
20260902043519 56 122 4.0 6.0 0.00 0.00 0.00 61 1023.9
20260902043044 56 111 3.0 5.0 0.00 0.00 0.00 61 1024.0
20260902042521 55 127 3.0 5.0 0.00 0.00 0.00 62 1024.0
20260902042016 55 118 4.0 5.0 0.00 0.00 0.00 64 1023.9
20260902041536 55 92 3.0 4.0 0.00 0.00 0.00 63 1023.9
20260902041018 56 74 2.0 5.0 0.00 0.00 0.00 62 1023.8
20260902040520 56 108 3.0 6.0 0.00 0.00 0.00 61 1023.8
20260902040042 56 109 2.0 6.0 0.00 0.00 0.00 60 1023.7
20260902035520 55 108 4.0 6.0 0.00 0.00 0.00 63 1023.7
20260902035020 55 84 3.0 5.0 0.00 0.00 0.00 64 1023.8
20260902034538 55 90 3.0 5.0 0.00 0.00 0.00 65 1023.6
20260902034017 55 98 4.0 6.0 0.00 0.00 0.00 64 1023.5
20260902033519 55 95 4.0 6.0 0.00 0.00 0.00 65 1023.5
20260902033037 55 97 5.0 7.0 0.00 0.00 0.00 64 1023.6
20260902032519 55 100 5.0 7.0 0.00 0.00 0.00 62 1023.4
20260902032023 56 92 5.0 7.0 0.00 0.00 0.00 62 1023.6
20260902031538 56 101 5.0 7.0 0.00 0.00 0.00 60 1023.5
20260902031022 57 0 2.0 5.0 0.00 0.00 0.00 59 1023.5
20260902030518 57 96 3.0 5.0 0.00 0.00 0.00 58 1023.6
20260902030039 59 70 2.0 5.0 0.00 0.00 0.00 54 1023.7
20260902025518 61 77 1.0 3.0 0.00 0.00 0.00 50 1023.5
20260902025018 61 89 1.0 3.0 0.00 0.00 0.00 47 1023.4
20260902024552 62 117 1.0 2.0 0.00 0.00 0.00 46 1023.4
20260902024019 63 124 1.0 2.0 0.00 0.00 0.00 44 1023.4
20260902023520 64 0 0.0 2.0 0.00 0.00 0.00 42 1023.2
20260902023037 65 168 0.0 4.0 0.00 0.00 0.00 41 1023.2
20260902022519 66 139 0.0 4.0 0.00 0.00 0.00 40 1023.1
20260902022024 66 216 2.0 4.0 0.00 0.00 0.00 40 1023.1
20260902021535 67 198 2.0 4.0 0.00 0.00 0.00 39 1023.0
20260902021024 67 224 3.0 5.0 0.00 0.00 0.00 39 1023.0
20260902020518 67 226 3.0 5.0 0.00 0.00 0.00 38 1023.0
20260902020039 67 217 3.0 6.0 0.00 0.00 0.00 38 1023.0
20260902015517 68 219 4.0 9.0 0.00 0.00 0.00 38 1023.0
20260902015020 68 238 5.0 9.0 0.00 0.00 0.00 37 1023.0